Temp
12 12 12 13 13 14 15 16 17 16 16 16 16 16 17 16 17 17 18 18 18 18
12 12 12 13 13 15 16 18 15 15 16 16 16 16 17 17 17 17 18 18 19 18
12 12 13 13 14 16 17 18 16 15 15 15 16 16 16 16 17 17 18 18 18 18
12 12 12 13 15 14 15 15 15 15 15 14 15 15 16 16 16 17 17 18 18 18
13 13 13 14 14 14 14 15 15 15 15 14 15 15 16 15 16 16 17 18 17 17
13 13 13 13 14 14 14 14 14 14 14 14 15 15 15 16 16 16 17 17 17 17
13 12 13 13 13 14 14 14 14 14 15 15 15 16 15 15 15 16 17 17 16 16
12 13 13 13 14 14 14 14 15 15 15 15 15 15 14 15 17 17 16 16 15 15
11 12 13 13 14 14 14 14 14 14 14 14 15 16 17 17 16 15 15 14 13 13
9 9 10 11 12 12 13 14 14 14 14 15 15 16 17 17 16 15 14 14 13 13
8 8 9 10 10 10 11 12 12 13 13 14 14 14 14 14 14 14 13 13 13 12
7 7 8 8 8 9 10 10 10 10 10 11 12 13 14 13 13 12 13 12 13 12
7 7 7 7 7 8 9 8 9 9 9 9 9 9 9 10 11 12 11 11 12 10
5 5 6 6 6 6 7 8 8 9 9 9 9 9 8 9 9 8 8 9 9 9
Height
713 715 716 717 720 721 724 723 726 733 740 745 757 764 770 778 784 791 797 802 807 811
708 710 709 712 711 713 712 716 718 722 729 740 749 757 765 772 779 786 792 798 803 806
704 702 702 700 701 702 701 702 717 724 730 736 744 753 760 768 774 780 787 793 798 801
696 695 695 690 694 697 692 702 711 721 729 734 740 749 756 763 768 775 781 788 792 796
688 693 691 690 691 697 699 700 706 716 725 731 739 746 750 758 763 770 775 781 785 789
688 687 686 689 691 695 697 702 709 715 722 728 736 741 749 753 759 764 770 774 779 782
679 677 670 677 682 691 699 704 708 714 719 725 732 738 745 750 756 759 763 767 772 777
679 672 668 676 683 690 697 705 708 714 720 724 728 734 741 746 749 754 759 763 767 770
683 680 678 678 684 689 697 704 708 714 719 724 728 732 737 740 744 750 754 756 761 764
691 690 690 691 690 691 696 702 708 715 720 724 726 730 733 739 742 745 748 751 755 758
703 701 702 702 703 705 705 707 714 717 720 724 726 730 733 736 738 740 744 746 749 751
714 713 714 715 715 714 715 716 719 723 725 726 725 729 731 735 735 736 736 738 742 743
728 728 728 727 725 725 725 726 728 730 732 731 732 731 732 734 734 734 730 734 736 736
734 733 733 732 730 730 733 735 733 733 734 734 733 733 734 735 735 735 733 731 731 733
Wind_Speed
32 31 31 32 31 33 37 33 39 49 50 46 44 42 44 43 44 45 44 41 40 37
29 30 27 31 40 37 39 37 23 39 38 40 42 44 45 40 42 45 45 43 41 41
25 32 34 32 34 36 34 38 42 34 36 39 41 44 44 40 44 43 43 42 41 40
30 33 31 8 18 25 32 35 38 38 36 37 40 41 42 37 41 40 40 41 39 39
27 26 24 23 14 13 27 31 34 36 37 34 35 36 38 35 38 38 40 42 40 39
23 21 25 29 28 21 22 31 33 37 35 34 34 35 34 39 38 41 41 40 40 38
3 8 18 31 29 27 27 29 31 33 35 37 36 36 37 37 37 39 40 38 38 39
13 22 16 20 24 27 31 30 33 32 30 32 32 34 37 36 36 34 33 34 36 38
21 28 27 21 22 26 27 28 28 28 29 31 34 35 34 34 34 36 36 34 36 37
31 30 29 28 27 19 20 21 19 21 23 25 28 30 31 33 36 37 36 36 36 38
30 34 33 30 28 25 23 20 10 12 16 21 25 26 27 30 34 34 36 36 38 38
33 33 32 31 29 26 24 21 15 9 4 1 11 20 21 27 30 32 37 35 39 41
31 30 28 25 25 22 20 18 15 12 10 10 8 6 6 11 20 21 20 23 24 25
32 30 28 26 26 23 20 16 14 12 11 12 13 12 13 12 12 13 17 23 26 28
Wind_Direction
228 221 224 231 235 225 215 218 206 198 194 188 190 191 193 194 198 204 206 210 209 215
229 223 223 227 239 235 206 203 180 175 176 183 187 192 192 192 197 205 209 214 218 221
226 229 234 239 221 211 197 186 193 186 182 181 188 194 193 193 199 203 208 214 219 223
209 217 239 268 186 172 168 182 183 178 180 181 187 191 191 194 198 201 207 214 219 224
214 227 241 250 223 209 182 180 173 177 180 181 187 188 188 193 199 199 207 216 221 227
210 236 240 222 212 209 198 191 185 182 182 186 191 194 193 200 204 206 215 218 222 224
31 354 223 199 194 201 202 183 181 185 188 196 202 206 205 204 205 207 214 218 223 226
69 53 103 169 176 182 182 184 188 186 192 197 201 201 199 203 210 214 219 225 227 231
53 69 68 81 138 158 169 181 184 185 193 196 201 206 210 214 219 219 219 221 231 235
54 54 57 68 72 94 141 171 183 193 203 210 215 218 223 225 225 225 226 227 227 228
45 56 57 57 58 63 67 88 122 174 202 219 226 223 228 229 229 234 232 228 230 227
47 48 50 49 48 46 47 50 46 53 58 192 199 219 235 236 221 224 223 226 229 228
50 49 50 53 50 49 48 45 41 37 22 5 346 325 295 256 239 233 220 219 228 235
50 47 41 39 40 41 42 39 34 20 7 355 345 333 324 303 283 268 253 242 231 233